Regional Weather Roundup
Issued by NWS

Home | Current Version | Previous Version | Graphics & Text | Print | Product List | Glossary On
Versions: 1 2 3 4 5 6 7 8 9 10 11 12 13 14 15 16 17 18 19 20 21 22 23 24 25 26 27 28 29 30 31 32 33 34 35 36 37 38 39 40 41 42 43 44 45 46 47 48 49 50
000
ASUS43 KFSD 271153
RWRSD

SOUTH DAKOTA HOURLY REGIONAL WEATHER ROUNDUP
NATIONAL WEATHER SERVICE ABERDEEN SD
700 AM CDT WED AUG 27 2014

...SATELLITE DATA IS USED TO AUGMENT CLOUD COVER ABOVE 12000 FEET...

NOTE: "FAIR" INDICATES FEW OR NO CLOUDS BELOW 12,000 FEET WITH NO
SIGNIFICANT WEATHER AND/OR OBSTRUCTION TO VISIBILITY.

SDZ001>005-009-010-012>017-271300-
...NORTHWEST AND NORTH CENTRAL SOUTH DAKOTA...

CITY           SKY/WX    TMP DP  RH WIND       PRES   REMARKS
BUFFALO        NOT AVBL
FAITH          NOT AVBL
MOBRIDGE       NOT AVBL
$$

SDZ012>016-024>037-041>051-057-063-271300-
...SOUTHWEST AND SOUTH CENTRAL SOUTH DAKOTA...

CITY           SKY/WX    TMP DP  RH WIND       PRES   REMARKS
RAPID CITY     NOT AVBL
ELLSWORTH AFB  NOT AVBL
CUSTER         NOT AVBL
PHILIP         NOT AVBL
PINE RIDGE     MOCLDY    61  61 100 MISG      30.13S
PIERRE         NOT AVBL
WINNER         NOT AVBL
$$

SDZ004>011-016>023-039-040-271300-
...NORTHEAST SOUTH DAKOTA...

CITY           SKY/WX    TMP DP  RH WIND       PRES   REMARKS
ABERDEEN       NOT AVBL
WATERTOWN      NOT AVBL
BROOKINGS      NOT AVBL
SISSETON       NOT AVBL
$$

SDZ017-020-022-023-036>040-048>070-271300-
...SOUTHEAST SOUTH DAKOTA...

CITY           SKY/WX    TMP DP  RH WIND       PRES   REMARKS
SIOUX FALLS    NOT AVBL
YANKTON        NOT AVBL
MITCHELL       NOT AVBL
HURON          NOT AVBL
CHAMBERLAIN    NOT AVBL
$$



USA.gov is the U.S. government's official web portal to all federal, state and local government web resources and services.